Epoch = 2010 Mar. 25.0 TT T = 2010 Mar. 5.73233 TT Peri. = 107.76353 e = 0.3532609 Node = 231.05130 2000.0 q = 2.3643294 AU Incl. = 11.52093 a = 3.6557699 AU n = 0.14100542 P = 6.99 years
m1 = 7.3 + 5 logΔ + 20 log r(t + 70)